Regional Weather Roundup
Issued by NWS

Home | Current Version | Previous Version | Graphics & Text | Print | Product List | Glossary On
Versions: 1 2 3 4 5 6 7 8 9 10 11 12 13 14 15 16 17 18 19 20 21 22 23 24 25 26 27 28 29 30 31 32 33 34 35 36 37 38 39 40 41 42 43 44 45 46 47 48 49 50
000
ASUS45 KSLC 050910
RWRUT

UTAH REGIONAL WEATHER ROUNDUP
NATIONAL WEATHER SERVICE SALT LAKE CITY UT
300 AM MDT SUN JUL 05 2015

UTZ001>011-023>025-051000-

NORTHERN UTAH

CITY           SKY/WX    TMP DP  RH WIND       PRES   REMARKS
BRIGHAM CITY   CLOUDY    80  53  39 CALM      29.95S
HILL AFB       CLOUDY    77  56  47 SW5       29.99R
LOGAN          PTCLDY    76  53  44 E7        29.95S
OGDEN          CLOUDY    78  55  44 S5        29.96R
PROVO AIRPORT  CLOUDY    73  54  49 S6        29.99F
SALT LAKE CITY CLOUDY    79  57  46 SE3       29.94S
VERNAL         CLOUDY    73  53  49 W9G17     30.06R
WENDOVER       CLOUDY    79  50  36 W6        29.96S
HEBER CITY     CLOUDY    66  54  63 N3        30.07R
WEST JORDAN    CLOUDY    75  55  50 S6        29.98S

$$

UTZ012>022-026-027-051000-

SOUTHERN/CENTRAL UTAH

CITY           SKY/WX    TMP DP  RH WIND       PRES   REMARKS
BLANDING       CLOUDY    62  60  92 NE5       30.25F
BRYCE CANYON   CLOUDY    60  52  74 CALM      30.26R
CEDAR CITY     CLOUDY    69  48  47 SE7       30.11S
DELTA          CLOUDY    73  53  51 S8        30.01S
HANKSVILLE     CLOUDY    64  63  94 W5        30.11S
MILFORD        CLOUDY    74  47  38 S9        30.03F
MOAB/CYNLANDS  LGT RAIN  67  65  93 E7        30.07F
PRICE          CLOUDY    65  56  72 SE10G17   30.18S
ST GEORGE      CLOUDY    81  46  30 E5        29.93S
KANAB          PTCLDY    63  54  72 N5        30.13S

$$

REGIONAL REPORTS     COLORADO/ARIZONA

CITY           SKY/WX    TMP DP  RH WIND       PRES   REMARKS
CRAIG, CO      CLOUDY    61  54  77 CALM      30.13R
GRAND JUNCTION CLOUDY    65  60  84 N22       30.10R
RIFLE          CLOUDY    65  58  78 S5        30.13R
MONTROSE       CLOUDY    72  51  47 N10       30.16S
CORTEZ         PTCLDY    64  57  78 NE3       30.20F
PAGE, AZ       PTCLDY    80  53  39 S7        30.01R
GRAND CANYON   PTCLDY    56  52  86 NE3       30.23R
KINGMAN        CLEAR     80  50  34 SW10      29.97S
FLAGSTAFF      CLOUDY    57  56  96 CALM      30.26F

$$

REGIONAL REPORTS    NEVADA/IDAHO/WYOMING

CITY           SKY/WX    TMP DP  RH WIND       PRES   REMARKS
LAS VEGAS, NV  PTCLDY    91  50  24 S10       29.80R
ELY            MOCLDY    62  50  64 SE9       30.14S
ELKO           CLOUDY    67  55  65 SW7       30.07F
POCATELLO, ID  CLEAR     79  46  31 SW22G30   29.94R
BURLEY         CLOUDY    73  52  47 SW6       29.91S
EVANSTON, WY   MOCLDY    65  49  56 SW10      30.15S
ROCK SPRINGS   MOCLDY    69  46  43 SW7       30.09S
KEMMERER       MOCLDY    63  45  51 NW5       30.14F

$$



USA.gov is the U.S. government's official web portal to all federal, state and local government web resources and services.